Location: Bednik
(45.3500°N, 16.3833°E)
Time: 05:36:53
(UTC+00:00)

Meteor 1-21 - Pass Details

Date: 08 August 2020
Orbit: 844 x 888 km, 81.2° (Epoch: 19 September)

Event Time Altitude Azimuth Distance (km) Brightness Sun altitude
Rises 23:17:15 0° 348° (NNW) 3,504 8.5 -28.7°
Reaches altitude 10° 23:19:43 10° 347° (NNW) 2,557 7.6 -28.7°
Enters shadow 23:25:22 80° 291° (WNW) 900 4.2 -28.6°
